User: anonymous   Login
Location: ???????
(55.9142°N, 37.8256°E)
Time: 13:25:01
(UTC+00:00)
Language:

Cosmos 2322 Rocket - Orbit

View from above orbital plane
View from above orbital plane
View from above satellite
View from above satellite

Ground track
Ground track

The orbit data is extracted from the following two-line orbital elements,

1 23705U 95058B   25197.66958647 -.00000076  00000-0 -14728-4 0  9990
2 23705  71.0224 315.7598 0010777 125.2753 234.9380 14.15450361534450
Epoch (UTC): 16 July 2025 16:04:12
Eccentricity: 0.0010777
inclination: 71.0224°
perigee height: 833 km
apogee height: 848 km
right ascension of ascending node: 315.7598°
argument of perigee: 125.2753°
revolutions per day: 14.15450361
mean anomaly at epoch: 234.9380°
orbit number at epoch: 53445

The dashed part of the orbit path shows where the satellite is in the earth's shadow,  

DLR